Satellite-Ground Cal/Val Site Overpasses Predictions

Prediction of Satellite NPP Overpassing Cal/Val Site: Antarctic Dome C

Ground Cal/Val Site Location: Latitude: -75.10, Longitude: 123.35; Satellite-Ground Site NADIR distance within 100 km.

Table of predicted overpasses for the next 14.0 days since TLE Epoch: 12/25/2021
Interval Starting Time Ending Time Minimum Distance Time Minimum Distance (km)
1 12/26/2021 14:55:55 12/26/2021 14:56:23 12/26/2021 14:56:09 22.63
2 12/27/2021 14:37:11 12/27/2021 14:37:27 12/27/2021 14:37:19 84.57
3 12/28/2021 07:38:44 12/28/2021 07:39:11 12/28/2021 07:38:57 39.61
4 12/29/2021 07:19:55 12/29/2021 07:20:16 12/29/2021 07:20:06 70.40
5 12/31/2021 15:02:08 12/31/2021 15:02:31 12/31/2021 15:02:19 59.36
6 01/01/2022 14:43:16 01/01/2022 14:43:42 01/01/2022 14:43:29 50.05
7 01/02/2022 07:44:57 01/02/2022 07:45:16 01/02/2022 07:45:06 74.34
8 01/03/2022 07:26:02 01/03/2022 07:26:30 01/03/2022 07:26:16 33.53
9 01/05/2022 15:08:26 01/05/2022 15:08:33 01/05/2022 15:08:30 96.57
